"Sample Date","Sample Time","Sample Value","Units","Flow Rate","Sample Interval","Number Channels","Micron Size 0","Counts/Channel 0","Micron Size 1","Counts/Channel 1","Micron Size 2","Counts/Channel 2","Micron Size 3","Counts/Channel 3","Micron Size 4","Counts/Channel 4","Micron Size 5","Counts/Channel 5","Micron Size 6","Counts/Channel 6","Micron Size 7","Counts/Channel 7","Micron Size 8","Counts/Channel 8","Micron Size 9","Counts/Channel 9","Micron Size 10","Counts/Channel 10","Micron Size 11","Counts/Channel 11","Micron Size 12","Counts/Channel 12","Micron Size 13","Counts/Channel 13","Micron Size 14","Counts/Channel 14","Micron Size 15","Counts/Channel 15","Micron Size 16","Counts/Channel 16","Micron Size 17","Counts/Channel 17","Micron Size 18","Counts/Channel 18","Micron Size 19","Counts/Channel 19","Micron Size 20","Counts/Channel 20","Micron Size 21","Counts/Channel 21","Micron Size 22","Counts/Channel 22","Micron Size 23","Counts/Channel 23","Micron Size 24","Counts/Channel 24","Micron Size 25","Counts/Channel 25","Micron Size 26","Counts/Channel 26","Micron Size 27","Counts/Channel 27","Micron Size 28","Counts/Channel 28","Micron Size 29","Counts/Channel 29","Micron Size 30","Counts/Channel 30","Micron Size 31","Counts/Channel 31"
"03/08/08","02:00:02",2820.000,"cc",28283.328,6.00,6,0.100,2316.000,0.200,427.000,0.300,61.000,0.500,16.000,1.000,0,5.000,0
"03/08/08","02:00:08",2926.000,"cc",28260.459,6.00,6,0.100,2356.000,0.200,469.000,0.300,67.000,0.500,32.000,1.000,2.000,5.000,0
"03/08/08","02:00:14",3126.000,"cc",28278.910,6.00,6,0.100,2534.000,0.200,479.000,0.300,83.000,0.500,27.000,1.000,3.000,5.000,0
"03/08/08","02:00:20",2967.000,"cc",28319.373,6.00,6,0.100,2391.000,0.200,471.000,0.300,80.000,0.500,23.000,1.000,2.000,5.000,0
"03/08/08","02:00:26",3105.000,"cc",28324.619,6.00,6,0.100,2468.000,0.200,505.000,0.300,98.000,0.500,32.000,1.000,2.000,5.000,0
"03/08/08","02:00:32",3104.000,"cc",28351.576,6.00,6,0.100,2435.000,0.200,569.000,0.300,67.000,0.500,28.000,1.000,5.000,5.000,0
"03/08/08","02:00:38",2961.000,"cc",28362.279,6.00,6,0.100,2425.000,0.200,459.000,0.300,64.000,0.500,13.000,1.000,0,5.000,0
"03/08/08","02:00:44",3055.000,"cc",28252.412,6.00,6,0.100,2466.000,0.200,479.000,0.300,75.000,0.500,32.000,1.000,3.000,5.000,0
"03/08/08","02:00:50",2972.000,"cc",28300.361,6.00,6,0.100,2409.000,0.200,463.000,0.300,77.000,0.500,20.000,1.000,3.000,5.000,0
"03/08/08","02:00:56",2847.000,"cc",28333.945,6.00,6,0.100,2365.000,0.200,421.000,0.300,52.000,0.500,9.000,1.000,0,5.000,0
"03/08/08","02:01:02",3090.000,"cc",28301.248,6.00,6,0.100,2537.000,0.200,461.000,0.300,66.000,0.500,23.000,1.000,3.000,5.000,0
"03/08/08","02:01:08",3342.000,"cc",28287.592,6.00,6,0.100,2678.000,0.200,553.000,0.300,82.000,0.500,28.000,1.000,1.000,5.000,0
"03/08/08","02:01:14",3478.000,"cc",28431.543,6.00,6,0.100,2792.000,0.200,577.000,0.300,84.000,0.500,24.000,1.000,1.000,5.000,0
"03/08/08","02:01:20",2925.000,"cc",28351.295,6.00,6,0.100,2413.000,0.200,462.000,0.300,41.000,0.500,9.000,1.000,0,5.000,0
"03/08/08","02:01:26",3056.000,"cc",28358.652,6.00,6,0.100,2471.000,0.200,527.000,0.300,49.000,0.500,9.000,1.000,0,5.000,0
"03/08/08","02:01:32",2882.000,"cc",28307.713,6.00,6,0.100,2390.000,0.200,428.000,0.300,56.000,0.500,8.000,1.000,0,5.000,0
"03/08/08","02:01:38",3110.000,"cc",28306.307,6.00,6,0.100,2535.000,0.200,506.000,0.300,57.000,0.500,10.000,1.000,2.000,5.000,0
"03/08/08","02:01:44",3126.000,"cc",28261.656,6.00,6,0.100,2532.000,0.200,522.000,0.300,59.000,0.500,13.000,1.000,0,5.000,0
"03/08/08","02:01:50",3124.000,"cc",28295.838,6.00,6,0.100,2559.000,0.200,468.000,0.300,74.000,0.500,22.000,1.000,1.000,5.000,0
"03/08/08","02:01:56",2986.000,"cc",28327.313,6.00,6,0.100,2384.000,0.200,527.000,0.300,49.000,0.500,26.000,1.000,0,5.000,0
"03/08/08","02:02:02",3027.000,"cc",28322.940,6.00,6,0.100,2483.000,0.200,478.000,0.300,54.000,0.500,10.000,1.000,2.000,5.000,0
"03/08/08","02:02:08",2866.000,"cc",28348.338,6.00,6,0.100,2357.000,0.200,443.000,0.300,51.000,0.500,12.000,1.000,3.000,5.000,0
"03/08/08","02:02:14",2825.000,"cc",28310.584,6.00,6,0.100,2335.000,0.200,432.000,0.300,45.000,0.500,11.000,1.000,2.000,5.000,0
"03/08/08","02:02:20",3218.000,"cc",28259.703,6.00,6,0.100,2592.000,0.200,544.000,0.300,60.000,0.500,20.000,1.000,2.000,5.000,0
"03/08/08","02:02:26",3266.000,"cc",28332.115,6.00,6,0.100,2733.000,0.200,454.000,0.300,63.000,0.500,16.000,1.000,0,5.000,0
"03/08/08","02:02:32",3104.000,"cc",28304.059,6.00,6,0.100,2524.000,0.200,493.000,0.300,63.000,0.500,20.000,1.000,4.000,5.000,0
"03/08/08","02:02:38",3083.000,"cc",28351.404,6.00,6,0.100,2532.000,0.200,476.000,0.300,52.000,0.500,19.000,1.000,4.000,5.000,0
"03/08/08","02:02:44",3019.000,"cc",28361.572,6.00,6,0.100,2462.000,0.200,471.000,0.300,67.000,0.500,18.000,1.000,1.000,5.000,0
"03/08/08","02:02:50",3027.000,"cc",28324.137,6.00,6,0.100,2471.000,0.200,474.000,0.300,58.000,0.500,16.000,1.000,8.000,5.000,0
"03/08/08","02:02:56",3241.000,"cc",28245.416,6.00,6,0.100,2630.000,0.200,535.000,0.300,55.000,0.500,21.000,1.000,0,5.000,0
"03/08/08","02:03:02",3510.000,"cc",28160.947,6.00,6,0.100,2800.000,0.200,597.000,0.300,79.000,0.500,32.000,1.000,2.000,5.000,0
"03/08/08","02:03:08",3371.000,"cc",28290.668,6.00,6,0.100,2713.000,0.200,559.000,0.300,80.000,0.500,17.000,1.000,2.000,5.000,0
"03/08/08","02:03:14",3329.000,"cc",28295.377,6.00,6,0.100,2682.000,0.200,541.000,0.300,78.000,0.500,27.000,1.000,1.000,5.000,0
"03/08/08","02:03:20",3292.000,"cc",28305.203,6.00,6,0.100,2666.000,0.200,534.000,0.300,64.000,0.500,25.000,1.000,3.000,5.000,0
"03/08/08","02:03:26",2859.000,"cc",28373.404,6.00,6,0.100,2373.000,0.200,441.000,0.300,44.000,0.500,1.000,1.000,0,5.000,0
"03/08/08","02:03:32",2685.000,"cc",28262.332,6.00,6,0.100,2221.000,0.200,416.000,0.300,41.000,0.500,7.000,1.000,0,5.000,0
"03/08/08","02:03:38",2752.000,"cc",28290.830,6.00,6,0.100,2296.000,0.200,416.000,0.300,32.000,0.500,7.000,1.000,1.000,5.000,0
"03/08/08","02:03:44",2306.000,"cc",28335.084,6.00,6,0.100,1946.000,0.200,328.000,0.300,27.000,0.500,5.000,1.000,0,5.000,0
"03/08/08","02:03:50",1839.000,"cc",28352.975,6.00,6,0.100,1582.000,0.200,246.000,0.300,10.000,0.500,1.000,1.000,0,5.000,0
"03/08/08","02:03:56",2221.000,"cc",28289.326,6.00,6,0.100,1850.000,0.200,342.000,0.300,20.000,0.500,9.000,1.000,0,5.000,0
"03/08/08","02:04:02",2211.000,"cc",28310.674,6.00,6,0.100,1876.000,0.200,302.000,0.300,28.000,0.500,5.000,1.000,0,5.000,0
"03/08/08","02:04:08",2472.000,"cc",28317.066,6.00,6,0.100,2059.000,0.200,376.000,0.300,25.000,0.500,12.000,1.000,0,5.000,0
"03/08/08","02:04:14",2511.000,"cc",28333.033,6.00,6,0.100,2082.000,0.200,379.000,0.300,43.000,0.500,6.000,1.000,1.000,5.000,0
"03/08/08","02:04:20",2637.000,"cc",28311.680,6.00,6,0.100,2204.000,0.200,388.000,0.300,36.000,0.500,9.000,1.000,0,5.000,0
"03/08/08","02:04:26",2580.000,"cc",28342.369,6.00,6,0.100,2113.000,0.200,413.000,0.300,46.000,0.500,8.000,1.000,0,5.000,0
"03/08/08","02:04:32",2517.000,"cc",28349.344,6.00,6,0.100,2035.000,0.200,421.000,0.300,46.000,0.500,14.000,1.000,1.000,5.000,0
"03/08/08","02:04:38",2580.000,"cc",28316.900,6.00,6,0.100,2109.000,0.200,411.000,0.300,44.000,0.500,16.000,1.000,0,5.000,0
"03/08/08","02:04:44",2635.000,"cc",28283.803,6.00,6,0.100,2160.000,0.200,419.000,0.300,42.000,0.500,13.000,1.000,1.000,5.000,0
"03/08/08","02:04:50",2664.000,"cc",28286.430,6.00,6,0.100,2087.000,0.200,489.000,0.300,63.000,0.500,24.000,1.000,1.000,5.000,0
"03/08/08","02:04:56",2625.000,"cc",28347.490,6.00,6,0.100,2087.000,0.200,428.000,0.300,67.000,0.500,39.000,1.000,4.000,5.000,0
"03/08/08","02:05:02",2368.000,"cc",28336.904,6.00,6,0.100,1885.000,0.200,398.000,0.300,53.000,0.500,26.000,1.000,6.000,5.000,0
"03/08/08","02:05:08",2319.000,"cc",28328.777,6.00,6,0.100,1818.000,0.200,396.000,0.300,69.000,0.500,32.000,1.000,4.000,5.000,0
"03/08/08","02:05:14",2590.000,"cc",28312.742,6.00,6,0.100,2010.000,0.200,466.000,0.300,72.000,0.500,38.000,1.000,4.000,5.000,0
"03/08/08","02:05:20",2354.000,"cc",28330.779,6.00,6,0.100,1850.000,0.200,411.000,0.300,60.000,0.500,28.000,1.000,5.000,5.000,0
"03/08/08","02:05:26",2384.000,"cc",28273.406,6.00,6,0.100,1884.000,0.200,402.000,0.300,50.000,0.500,44.000,1.000,4.000,5.000,0
"03/08/08","02:05:32",2200.000,"cc",28345.488,6.00,6,0.100,1728.000,0.200,371.000,0.300,68.000,0.500,29.000,1.000,4.000,5.000,0
"03/08/08","02:05:38",2108.000,"cc",28330.346,6.00,6,0.100,1681.000,0.200,352.000,0.300,47.000,0.500,25.000,1.000,3.000,5.000,0
"03/08/08","02:05:44",1993.000,"cc",28267.418,6.00,6,0.100,1596.000,0.200,333.000,0.300,48.000,0.500,13.000,1.000,3.000,5.000,0
"03/08/08","02:05:50",2125.000,"cc",28358.789,6.00,6,0.100,1729.000,0.200,316.000,0.300,61.000,0.500,18.000,1.000,1.000,5.000,0
"03/08/08","02:05:56",2042.000,"cc",28273.359,6.00,6,0.100,1676.000,0.200,308.000,0.300,45.000,0.500,12.000,1.000,1.000,5.000,0
"03/08/08","02:06:02",1913.000,"cc",28376.268,6.00,6,0.100,1506.000,0.200,346.000,0.300,46.000,0.500,15.000,1.000,0,5.000,0
"03/08/08","02:06:08",1908.000,"cc",28272.793,6.00,6,0.100,1538.000,0.200,324.000,0.300,33.000,0.500,12.000,1.000,1.000,5.000,0
"03/08/08","02:06:14",1897.000,"cc",28277.068,6.00,6,0.100,1538.000,0.200,310.000,0.300,38.000,0.500,10.000,1.000,1.000,5.000,0
"03/08/08","02:06:20",1951.000,"cc",28344.525,6.00,6,0.100,1574.000,0.200,314.000,0.300,53.000,0.500,10.000,1.000,0,5.000,0
"03/08/08","02:06:26",2246.000,"cc",28269.090,6.00,6,0.100,1806.000,0.200,378.000,0.300,46.000,0.500,16.000,1.000,0,5.000,0
"03/08/08","02:06:32",1891.000,"cc",28370.395,6.00,6,0.100,1553.000,0.200,309.000,0.300,23.000,0.500,6.000,1.000,0,5.000,0
"03/08/08","02:06:38",2247.000,"cc",28375.914,6.00,6,0.100,1818.000,0.200,355.000,0.300,53.000,0.500,19.000,1.000,2.000,5.000,0
"03/08/08","02:06:44",2040.000,"cc",28316.981,6.00,6,0.100,1686.000,0.200,310.000,0.300,34.000,0.500,10.000,1.000,0,5.000,0
"03/08/08","02:06:50",1846.000,"cc",28286.660,6.00,6,0.100,1506.000,0.200,289.000,0.300,42.000,0.500,9.000,1.000,0,5.000,0
"03/08/08","02:06:56",2077.000,"cc",28279.940,6.00,6,0.100,1696.000,0.200,321.000,0.300,47.000,0.500,12.000,1.000,1.000,5.000,0
"03/08/08","02:07:02",2394.000,"cc",28272.029,6.00,6,0.100,1980.000,0.200,362.000,0.300,37.000,0.500,13.000,1.000,2.000,5.000,0
"03/08/08","02:07:08",2460.000,"cc",28259.148,6.00,6,0.100,1965.000,0.200,427.000,0.300,50.000,0.500,18.000,1.000,0,5.000,0
"03/08/08","02:07:14",2266.000,"cc",28394.779,6.00,6,0.100,1823.000,0.200,350.000,0.300,63.000,0.500,26.000,1.000,4.000,5.000,0
"03/08/08","02:07:20",2438.000,"cc",28347.549,6.00,6,0.100,1942.000,0.200,399.000,0.300,70.000,0.500,24.000,1.000,3.000,5.000,0
"03/08/08","02:07:26",2481.000,"cc",28322.596,6.00,6,0.100,1974.000,0.200,419.000,0.300,57.000,0.500,31.000,1.000,0,5.000,0
"03/08/08","02:07:32",2300.000,"cc",28275.791,6.00,6,0.100,1840.000,0.200,380.000,0.300,56.000,0.500,24.000,1.000,0,5.000,0
"03/08/08","02:07:38",2639.000,"cc",28292.959,6.00,6,0.100,2091.000,0.200,457.000,0.300,67.000,0.500,21.000,1.000,3.000,5.000,0
"03/08/08","02:07:44",2498.000,"cc",28316.188,6.00,6,0.100,2003.000,0.200,393.000,0.300,70.000,0.500,30.000,1.000,2.000,5.000,0
"03/08/08","02:07:50",2368.000,"cc",28361.176,6.00,6,0.100,1893.000,0.200,385.000,0.300,67.000,0.500,22.000,1.000,1.000,5.000,0
"03/08/08","02:07:56",2010.000,"cc",28282.051,6.00,6,0.100,1610.000,0.200,334.000,0.300,55.000,0.500,10.000,1.000,1.000,5.000,0
"03/08/08","02:08:02",2149.000,"cc",28302.557,6.00,6,0.100,1738.000,0.200,342.000,0.300,46.000,0.500,23.000,1.000,0,5.000,0
"03/08/08","02:08:08",2471.000,"cc",28310.887,6.00,6,0.100,1928.000,0.200,448.000,0.300,75.000,0.500,18.000,1.000,2.000,5.000,0
"03/08/08","02:08:14",2418.000,"cc",28259.791,6.00,6,0.100,1992.000,0.200,355.000,0.300,53.000,0.500,18.000,1.000,0,5.000,0
"03/08/08","02:08:20",2518.000,"cc",28347.592,6.00,6,0.100,2022.000,0.200,411.000,0.300,69.000,0.500,13.000,1.000,3.000,5.000,0
"03/08/08","02:08:26",2579.000,"cc",28336.617,6.00,6,0.100,2054.000,0.200,437.000,0.300,71.000,0.500,16.000,1.000,1.000,5.000,0
"03/08/08","02:08:32",2725.000,"cc",28343.895,6.00,6,0.100,2170.000,0.200,452.000,0.300,76.000,0.500,25.000,1.000,2.000,5.000,0
"03/08/08","02:08:38",2771.000,"cc",28285.863,6.00,6,0.100,2175.000,0.200,484.000,0.300,80.000,0.500,31.000,1.000,1.000,5.000,0
"03/08/08","02:08:44",2760.000,"cc",28214.928,6.00,6,0.100,2157.000,0.200,474.000,0.300,83.000,0.500,39.000,1.000,7.000,5.000,0
"03/08/08","02:08:50",2697.000,"cc",28411.334,6.00,6,0.100,2082.000,0.200,465.000,0.300,86.000,0.500,58.000,1.000,6.000,5.000,0
"03/08/08","02:08:56",2706.000,"cc",28339.633,6.00,6,0.100,2122.000,0.200,423.000,0.300,100.000,0.500,50.000,1.000,11.000,5.000,0
"03/08/08","02:09:02",1950.000,"cc",28368.981,6.00,6,0.100,1529.000,0.200,337.000,0.300,56.000,0.500,24.000,1.000,4.000,5.000,0
"03/08/08","02:09:08",1822.000,"cc",28326.703,6.00,6,0.100,1482.000,0.200,284.000,0.300,40.000,0.500,15.000,1.000,1.000,5.000,0
"03/08/08","02:09:14",1736.000,"cc",28257.139,6.00,6,0.100,1415.000,0.200,270.000,0.300,36.000,0.500,13.000,1.000,2.000,5.000,0
"03/08/08","02:09:20",1906.000,"cc",28329.117,6.00,6,0.100,1557.000,0.200,296.000,0.300,42.000,0.500,11.000,1.000,0,5.000,0
"03/08/08","02:09:26",1846.000,"cc",28321.219,6.00,6,0.100,1487.000,0.200,296.000,0.300,50.000,0.500,12.000,1.000,1.000,5.000,0
"03/08/08","02:09:32",1553.000,"cc",28276.029,6.00,6,0.100,1261.000,0.200,262.000,0.300,22.000,0.500,8.000,1.000,0,5.000,0
"03/08/08","02:09:38",1775.000,"cc",28308.926,6.00,6,0.100,1441.000,0.200,294.000,0.300,28.000,0.500,11.000,1.000,1.000,5.000,0
"03/08/08","02:09:44",1947.000,"cc",28331.912,6.00,6,0.100,1613.000,0.200,279.000,0.300,45.000,0.500,8.000,1.000,2.000,5.000,0
"03/08/08","02:09:50",1776.000,"cc",28257.734,6.00,6,0.100,1460.000,0.200,271.000,0.300,37.000,0.500,8.000,1.000,0,5.000,0
"03/08/08","02:09:56",1953.000,"cc",28329.941,6.00,6,0.100,1598.000,0.200,305.000,0.300,42.000,0.500,7.000,1.000,1.000,5.000,0
"03/08/08","02:10:02",1877.000,"cc",28316.539,6.00,6,0.100,1534.000,0.200,304.000,0.300,29.000,0.500,9.000,1.000,1.000,5.000,0
"03/08/08","02:10:08",1773.000,"cc",28357.734,6.00,6,0.100,1447.000,0.200,289.000,0.300,26.000,0.500,11.000,1.000,0,5.000,0
"03/08/08","02:10:14",1606.000,"cc",28416.570,6.00,6,0.100,1315.000,0.200,255.000,0.300,33.000,0.500,3.000,1.000,0,5.000,0
"03/08/08","02:10:20",1852.000,"cc",28306.762,6.00,6,0.100,1510.000,0.200,292.000,0.300,37.000,0.500,12.000,1.000,1.000,5.000,0
"03/08/08","02:10:26",1799.000,"cc",28276.336,6.00,6,0.100,1426.000,0.200,314.000,0.300,41.000,0.500,16.000,1.000,2.000,5.000,0
"03/08/08","02:10:32",1685.000,"cc",28321.889,6.00,6,0.100,1360.000,0.200,288.000,0.300,29.000,0.500,7.000,1.000,1.000,5.000,0
"03/08/08","02:10:38",1832.000,"cc",28254.668,6.00,6,0.100,1515.000,0.200,279.000,0.300,35.000,0.500,3.000,1.000,0,5.000,0
"03/08/08","02:10:44",1899.000,"cc",28396.920,6.00,6,0.100,1568.000,0.200,282.000,0.300,39.000,0.500,10.000,1.000,0,5.000,0
"03/08/08","02:10:50",1733.000,"cc",28319.303,6.00,6,0.100,1413.000,0.200,271.000,0.300,36.000,0.500,12.000,1.000,1.000,5.000,0
"03/08/08","02:10:56",1749.000,"cc",28331.600,6.00,6,0.100,1426.000,0.200,296.000,0.300,23.000,0.500,4.000,1.000,0,5.000,0
"03/08/08","02:11:02",1878.000,"cc",28323.318,6.00,6,0.100,1530.000,0.200,299.000,0.300,39.000,0.500,9.000,1.000,1.000,5.000,0
"03/08/08","02:11:08",1736.000,"cc",28332.410,6.00,6,0.100,1442.000,0.200,269.000,0.300,18.000,0.500,7.000,1.000,0,5.000,0
"03/08/08","02:11:14",1838.000,"cc",28313.324,6.00,6,0.100,1499.000,0.200,298.000,0.300,27.000,0.500,14.000,1.000,0,5.000,0
"03/08/08","02:11:20",1619.000,"cc",28310.389,6.00,6,0.100,1340.000,0.200,252.000,0.300,23.000,0.500,4.000,1.000,0,5.000,0
"03/08/08","02:11:26",1707.000,"cc",28271.713,6.00,6,0.100,1420.000,0.200,248.000,0.300,32.000,0.500,6.000,1.000,1.000,5.000,0
"03/08/08","02:11:32",1731.000,"cc",28311.807,6.00,6,0.100,1431.000,0.200,270.000,0.300,25.000,0.500,5.000,1.000,0,5.000,0
"03/08/08","02:11:38",1956.000,"cc",28244.385,6.00,6,0.100,1586.000,0.200,327.000,0.300,30.000,0.500,13.000,1.000,0,5.000,0
"03/08/08","02:11:44",1975.000,"cc",28310.397,6.00,6,0.100,1635.000,0.200,293.000,0.300,34.000,0.500,13.000,1.000,0,5.000,0
"03/08/08","02:11:50",2179.000,"cc",28280.947,6.00,6,0.100,1762.000,0.200,348.000,0.300,47.000,0.500,21.000,1.000,1.000,5.000,0
"03/08/08","02:11:56",2136.000,"cc",28391.854,6.00,6,0.100,1754.000,0.200,337.000,0.300,35.000,0.500,10.000,1.000,0,5.000,0
"03/08/08","02:12:02",2418.000,"cc",28360.945,6.00,6,0.100,1972.000,0.200,377.000,0.300,47.000,0.500,19.000,1.000,3.000,5.000,0
"03/08/08","02:12:08",2198.000,"cc",28263.188,6.00,6,0.100,1753.000,0.200,359.000,0.300,64.000,0.500,21.000,1.000,1.000,5.000,0
"03/08/08","02:12:14",2233.000,"cc",28293.350,6.00,6,0.100,1807.000,0.200,347.000,0.300,57.000,0.500,18.000,1.000,4.000,5.000,0
"03/08/08","02:12:20",2163.000,"cc",28330.145,6.00,6,0.100,1733.000,0.200,365.000,0.300,44.000,0.500,20.000,1.000,1.000,5.000,0
"03/08/08","02:12:26",1838.000,"cc",28314.859,6.00,6,0.100,1506.000,0.200,280.000,0.300,38.000,0.500,13.000,1.000,1.000,5.000,0
"03/08/08","02:12:32",1999.000,"cc",28288.461,6.00,6,0.100,1619.000,0.200,321.000,0.300,44.000,0.500,15.000,1.000,0,5.000,0
"03/08/08","02:12:38",1930.000,"cc",28368.305,6.00,6,0.100,1582.000,0.200,297.000,0.300,37.000,0.500,14.000,1.000,0,5.000,0
"03/08/08","02:12:44",1467.000,"cc",28372.084,6.00,6,0.100,1210.000,0.200,233.000,0.300,14.000,0.500,8.000,1.000,2.000,5.000,0
"03/08/08","02:12:50",1440.000,"cc",28260.338,6.00,6,0.100,1185.000,0.200,226.000,0.300,21.000,0.500,8.000,1.000,0,5.000,0
"03/08/08","02:12:56",1396.000,"cc",28344.398,6.00,6,0.100,1176.000,0.200,195.000,0.300,20.000,0.500,4.000,1.000,1.000,5.000,0
"03/08/08","02:13:02",1432.000,"cc",28318.248,6.00,6,0.100,1194.000,0.200,211.000,0.300,20.000,0.500,5.000,1.000,2.000,5.000,0
"03/08/08","02:13:08",1560.000,"cc",28300.602,6.00,6,0.100,1299.000,0.200,230.000,0.300,27.000,0.500,4.000,1.000,0,5.000,0
"03/08/08","02:13:14",1720.000,"cc",28273.066,6.00,6,0.100,1396.000,0.200,274.000,0.300,42.000,0.500,7.000,1.000,1.000,5.000,0
"03/08/08","02:13:20",1600.000,"cc",28261.186,6.00,6,0.100,1312.000,0.200,251.000,0.300,24.000,0.500,13.000,1.000,0,5.000,0
"03/08/08","02:13:26",1472.000,"cc",28368.311,6.00,6,0.100,1245.000,0.200,191.000,0.300,29.000,0.500,7.000,1.000,0,5.000,0
"03/08/08","02:13:32",1308.000,"cc",28273.565,6.00,6,0.100,1090.000,0.200,186.000,0.300,25.000,0.500,6.000,1.000,1.000,5.000,0
"03/08/08","02:13:38",1475.000,"cc",28342.191,6.00,6,0.100,1229.000,0.200,219.000,0.300,21.000,0.500,6.000,1.000,0,5.000,0
"03/08/08","02:13:44",1502.000,"cc",28232.557,6.00,6,0.100,1260.000,0.200,209.000,0.300,27.000,0.500,5.000,1.000,1.000,5.000,0
"03/08/08","02:13:50",1498.000,"cc",28377.713,6.00,6,0.100,1251.000,0.200,212.000,0.300,23.000,0.500,11.000,1.000,1.000,5.000,0
"03/08/08","02:13:56",1293.000,"cc",28401.023,6.00,6,0.100,1083.000,0.200,184.000,0.300,20.000,0.500,6.000,1.000,0,5.000,0
"03/08/08","02:14:02",1400.000,"cc",28330.063,6.00,6,0.100,1189.000,0.200,184.000,0.300,24.000,0.500,3.000,1.000,0,5.000,0
"03/08/08","02:14:08",1744.000,"cc",28313.356,6.00,6,0.100,1425.000,0.200,278.000,0.300,29.000,0.500,12.000,1.000,0,5.000,0
"03/08/08","02:14:14",1456.000,"cc",28224.547,6.00,6,0.100,1196.000,0.200,226.000,0.300,28.000,0.500,6.000,1.000,0,5.000,0
"03/08/08","02:14:20",1421.000,"cc",28321.098,6.00,6,0.100,1187.000,0.200,210.000,0.300,18.000,0.500,6.000,1.000,0,5.000,0
"03/08/08","02:14:26",1553.000,"cc",28302.729,6.00,6,0.100,1314.000,0.200,214.000,0.300,20.000,0.500,5.000,1.000,0,5.000,0
"03/08/08","02:14:32",1824.000,"cc",28250.883,6.00,6,0.100,1514.000,0.200,279.000,0.300,27.000,0.500,3.000,1.000,1.000,5.000,0
"03/08/08","02:14:38",1861.000,"cc",28336.445,6.00,6,0.100,1531.000,0.200,301.000,0.300,26.000,0.500,3.000,1.000,0,5.000,0
"03/08/08","02:14:44",1932.000,"cc",28404.713,6.00,6,0.100,1549.000,0.200,350.000,0.300,25.000,0.500,8.000,1.000,0,5.000,0
"03/08/08","02:14:50",1801.000,"cc",28276.629,6.00,6,0.100,1465.000,0.200,303.000,0.300,28.000,0.500,5.000,1.000,0,5.000,0
"03/08/08","02:14:56",1777.000,"cc",28284.234,6.00,6,0.100,1488.000,0.200,245.000,0.300,33.000,0.500,8.000,1.000,3.000,5.000,0
"03/08/08","02:15:02",1777.000,"cc",28291.049,6.00,6,0.100,1473.000,0.200,272.000,0.300,27.000,0.500,4.000,1.000,1.000,5.000,0
"03/08/08","02:15:08",2020.000,"cc",28336.205,6.00,6,0.100,1684.000,0.200,306.000,0.300,23.000,0.500,6.000,1.000,1.000,5.000,0
"03/08/08","02:15:14",2183.000,"cc",28305.174,6.00,6,0.100,1844.000,0.200,297.000,0.300,27.000,0.500,12.000,1.000,3.000,5.000,0
"03/08/08","02:15:20",2033.000,"cc",28320.289,6.00,6,0.100,1681.000,0.200,326.000,0.300,22.000,0.500,3.000,1.000,1.000,5.000,0
"03/08/08","02:15:26",2085.000,"cc",28335.229,6.00,6,0.100,1738.000,0.200,312.000,0.300,31.000,0.500,3.000,1.000,1.000,5.000,0
"03/08/08","02:15:32",2043.000,"cc",28318.592,6.00,6,0.100,1653.000,0.200,344.000,0.300,35.000,0.500,11.000,1.000,0,5.000,0
"03/08/08","02:15:38",2153.000,"cc",28298.602,6.00,6,0.100,1761.000,0.200,332.000,0.300,47.000,0.500,12.000,1.000,1.000,5.000,0
"03/08/08","02:15:44",2094.000,"cc",28315.533,6.00,6,0.100,1743.000,0.200,303.000,0.300,36.000,0.500,11.000,1.000,1.000,5.000,0
"03/08/08","02:15:50",1455.000,"cc",28334.801,6.00,6,0.100,1238.000,0.200,191.000,0.300,18.000,0.500,6.000,1.000,2.000,5.000,0
"03/08/08","02:15:56",1535.000,"cc",28284.164,6.00,6,0.100,1276.000,0.200,227.000,0.300,27.000,0.500,3.000,1.000,2.000,5.000,0
"03/08/08","02:16:02",1841.000,"cc",28322.910,6.00,6,0.100,1516.000,0.200,272.000,0.300,42.000,0.500,11.000,1.000,0,5.000,0
"03/08/08","02:16:08",2056.000,"cc",28360.717,6.00,6,0.100,1714.000,0.200,294.000,0.300,32.000,0.500,14.000,1.000,2.000,5.000,0
"03/08/08","02:16:14",2324.000,"cc",28303.930,6.00,6,0.100,1913.000,0.200,347.000,0.300,51.000,0.500,13.000,1.000,0,5.000,0
"03/08/08","02:16:20",2155.000,"cc",28257.750,6.00,6,0.100,1784.000,0.200,319.000,0.300,41.000,0.500,10.000,1.000,1.000,5.000,0
"03/08/08","02:16:26",2069.000,"cc",28326.092,6.00,6,0.100,1703.000,0.200,323.000,0.300,33.000,0.500,9.000,1.000,1.000,5.000,0
"03/08/08","02:16:32",2061.000,"cc",28271.666,6.00,6,0.100,1716.000,0.200,310.000,0.300,26.000,0.500,9.000,1.000,0,5.000,0
"03/08/08","02:16:38",2046.000,"cc",28325.215,6.00,6,0.100,1670.000,0.200,336.000,0.300,31.000,0.500,9.000,1.000,0,5.000,0
"03/08/08","02:16:44",2156.000,"cc",28347.699,6.00,6,0.100,1786.000,0.200,336.000,0.300,19.000,0.500,11.000,1.000,4.000,5.000,0
"03/08/08","02:16:50",2310.000,"cc",28299.996,6.00,6,0.100,1931.000,0.200,337.000,0.300,31.000,0.500,10.000,1.000,1.000,5.000,0
"03/08/08","02:16:56",2437.000,"cc",28362.840,6.00,6,0.100,2017.000,0.200,372.000,0.300,38.000,0.500,9.000,1.000,1.000,5.000,0
"03/08/08","02:17:02",2404.000,"cc",28382.527,6.00,6,0.100,2013.000,0.200,352.000,0.300,27.000,0.500,12.000,1.000,0,5.000,0
"03/08/08","02:17:08",2173.000,"cc",28329.613,6.00,6,0.100,1792.000,0.200,343.000,0.300,34.000,0.500,3.000,1.000,1.000,5.000,0
"03/08/08","02:17:14",1998.000,"cc",28279.418,6.00,6,0.100,1698.000,0.200,273.000,0.300,22.000,0.500,4.000,1.000,1.000,5.000,0
"03/08/08","02:17:20",2226.000,"cc",28287.664,6.00,6,0.100,1841.000,0.200,345.000,0.300,31.000,0.500,9.000,1.000,0,5.000,0
"03/08/08","02:17:26",2210.000,"cc",28259.922,6.00,6,0.100,1847.000,0.200,326.000,0.300,30.000,0.500,7.000,1.000,0,5.000,0
"03/08/08","02:17:32",2373.000,"cc",28409.106,6.00,6,0.100,1934.000,0.200,404.000,0.300,24.000,0.500,9.000,1.000,2.000,5.000,0
"03/08/08","02:17:38",2256.000,"cc",28298.207,6.00,6,0.100,1872.000,0.200,344.000,0.300,35.000,0.500,3.000,1.000,2.000,5.000,0
"03/08/08","02:17:44",2404.000,"cc",28330.693,6.00,6,0.100,1964.000,0.200,393.000,0.300,36.000,0.500,7.000,1.000,4.000,5.000,0